Location: Darlington Observatory
(36.4817°N, 105.8156°W)
Time: 23:19:09
(UTC-06:00)

NOSS 3-3 (A) - Visible Passes

Search period start: 18 April 2014 00:00
Search period end: 28 April 2014 00:00
Orbit: 990 x 1223 km, 63.4° (Epoch: 24 March)

Date Brightness Start Highest point End Pass type
(mag) Time Alt. Az. Time Alt. Az. Time Alt. Az.
18 Apr 6.6 03:34:51 10° ESE 03:36:02 11° ESE 03:37:13 10° E visible
18 Apr 4.2 05:19:20 10° SSW 05:25:47 81° ESE 05:32:32 10° NE visible
19 Apr 4.8 04:36:27 17° S 04:41:19 49° ESE 04:47:43 10° NE visible
20 Apr 5.6 03:53:43 19° SSE 03:56:59 29° ESE 04:02:31 10° NE visible
20 Apr 4.5 05:41:19 10° SW 05:47:33 48° NW 05:54:05 10° NNE visible
21 Apr 6.1 03:10:54 14° SE 03:12:46 16° ESE 03:16:36 10° ENE visible
21 Apr 4.1 04:58:22 22° SW 05:02:49 76° WNW 05:09:36 10° NNE visible
22 Apr 4.3 04:15:28 36° S 04:18:15 68° ESE 04:24:55 10° NE visible
23 Apr 4.9 03:32:31 36° SE 03:33:50 40° ESE 03:39:59 10° NE visible
23 Apr 4.9 05:19:58 15° WSW 05:24:45 36° NW 05:30:58 10° NNE visible
24 Apr 5.6 02:49:29 23° ESE 02:49:33 23° ESE 02:54:35 10° ENE visible
24 Apr 4.3 04:36:57 32° WSW 04:39:55 57° NW 04:46:35 10° NNE visible
25 Apr 6.4 02:06:25 12° E 02:06:25 12° E 02:08:00 10° E visible
25 Apr 4.0 03:53:52 59° SSW 03:55:15 90° WNW 04:02:02 10° NNE visible
25 Apr 5.8 05:42:37 10° W 05:47:10 19° NW 05:51:53 10° N visible
26 Apr 4.4 03:10:44 56° ESE 03:10:45 56° ESE 03:17:16 10° NE visible
26 Apr 5.3 04:58:11 17° W 05:02:02 28° NW 05:07:47 10° NNE visible
27 Apr 5.4 02:27:33 31° E 02:27:33 31° E 02:32:11 10° NE visible
27 Apr 4.7 04:15:00 34° W 04:17:05 43° NW 04:23:31 10° NNE visible
